• In Hungary
  • List of Countries
  • For 7 days
  • Water Temperature
  • Satellite Maps
  • Weather Map
  • News
  • Weather Widgets
  • user-avatar
    Login

    Hourly Weather Ilorin

    Today, 15 November, Thursday

    Time Temperature Precipitation Wind Pressure Humidity
    00:00 +27°C° 0 mm 1 mps 732 mmHg 50%
    01:00 +27°C° 0 mm 1 mps 732 mmHg 58%
    02:00 +26°C° 0 mm 1 mps 732 mmHg 67%
    03:00 +26°C° 0 mm 1 mps 731 mmHg 75%
    04:00 +26°C° 0 mm 1 mps 732 mmHg 79%
    05:00 +26°C° 0 mm 1 mps 732 mmHg 83%
    06:00 +26°C° 0 mm 1 mps 732 mmHg 88%
    07:00 +28°C° 0 mm 1 mps 732 mmHg 79%
    08:00 +30°C° 0 mm 1 mps 733 mmHg 69%
    09:00 +32°C° 0 mm 1 mps 733 mmHg 59%
    10:00 +34°C° 0 mm 1 mps 732 mmHg 49%
    11:00 +36°C° 0 mm 1 mps 732 mmHg 38%
    12:00 +39°C° 0 mm 1 mps 731 mmHg 28%
    13:00 +39°C° 0 mm 1 mps 731 mmHg 26%
    14:00 +39°C° 0 mm 1 mps 730 mmHg 25%
    15:00 +39°C° 0 mm 1 mps 730 mmHg 23%
    16:00 +36°C° 0 mm 1 mps 730 mmHg 26%
    17:00 +34°C° 0 mm 1 mps 730 mmHg 28%
    18:00 +32°C° 0 mm 1 mps 730 mmHg 31%
    19:00 +32°C° 0 mm 1 mps 731 mmHg 35%
    20:00 +31°C° 0 mm 2 mps 731 mmHg 39%
    21:00 +30°C° 0 mm 2 mps 732 mmHg 42%
    22:00 +29°C° 0 mm 2 mps 732 mmHg 53%
    23:00 +28°C° 0 mm 3 mps 732 mmHg 64%

    Tomorrow, 16 November, Friday

    Time Temperature Precipitation Wind Pressure Humidity
    00:00 +27°C° 0 mm 3 mps 732 mmHg 75%
    01:00 +27°C° 0 mm 3 mps 732 mmHg 77%
    02:00 +27°C° 0 mm 3 mps 732 mmHg 79%
    03:00 +27°C° 0 mm 2 mps 732 mmHg 81%
    04:00 +26°C° 0 mm 2 mps 732 mmHg 83%
    05:00 +26°C° 0 mm 2 mps 732 mmHg 85%
    06:00 +26°C° 0 mm 1 mps 733 mmHg 86%
    07:00 +28°C° 0 mm 2 mps 733 mmHg 79%
    08:00 +29°C° 0 mm 2 mps 734 mmHg 71%
    09:00 +31°C° 0 mm 2 mps 734 mmHg 64%
    10:00 +34°C° 0 mm 2 mps 734 mmHg 54%
    11:00 +35°C° 0 mm 1 mps 733 mmHg 45%
    12:00 +39°C° 0 mm 1 mps 733 mmHg 35%
    13:00 +39°C° 0 mm 1 mps 732 mmHg 33%
    14:00 +39°C° 0 mm 1 mps 731 mmHg 31%
    15:00 +39°C° 0 mm 1 mps 731 mmHg 30%
    16:00 +36°C° 0 mm 1 mps 731 mmHg 34%
    17:00 +34°C° 0 mm 1 mps 731 mmHg 38%
    18:00 +32°C° 0 mm 2 mps 731 mmHg 43%
    19:00 +31°C° 0 mm 2 mps 731 mmHg 48%
    20:00 +31°C° 0 mm 2 mps 732 mmHg 52%
    21:00 +30°C° 0 mm 2 mps 732 mmHg 57%
    22:00 +29°C° 0 mm 2 mps 732 mmHg 64%
    23:00 +28°C° 0 mm 3 mps 732 mmHg 71%

    Day after tomorrow, 17 November, Saturday

    Time Temperature Precipitation Wind Pressure Humidity
    00:00 +28°C° 0 mm 3 mps 732 mmHg 79%
    01:00 +27°C° 0 mm 3 mps 732 mmHg 81%
    02:00 +27°C° 0 mm 3 mps 732 mmHg 83%
    03:00 +27°C° 0 mm 3 mps 732 mmHg 86%
    04:00 +27°C° 0 mm 3 mps 732 mmHg 86%
    05:00 +27°C° 0 mm 3 mps 733 mmHg 85%
    06:00 +27°C° 0 mm 3 mps 733 mmHg 85%
    07:00 +28°C° 0 mm 3 mps 733 mmHg 79%
    08:00 +30°C° 0 mm 3 mps 734 mmHg 72%
    09:00 +31°C° 0 mm 3 mps 734 mmHg 65%
    10:00 +34°C° 0 mm 2 mps 734 mmHg 56%
    11:00 +36°C° 0 mm 2 mps 733 mmHg 47%
    12:00 +37°C° 0 mm 1 mps 732 mmHg 38%
    13:00 +37°C° 0 mm 1 mps 732 mmHg 36%
    14:00 +37°C° 0 mm 1 mps 731 mmHg 34%
    15:00 +39°C° 0 mm 1 mps 730 mmHg 32%
    16:00 +36°C° 0 mm 1 mps 730 mmHg 36%
    17:00 +34°C° 0 mm 1 mps 731 mmHg 39%
    18:00 +34°C° 0 mm 2 mps 731 mmHg 42%
    19:00 +32°C° 0 mm 2 mps 731 mmHg 50%
    20:00 +31°C° 0 mm 3 mps 732 mmHg 57%
    21:00 +30°C° 0 mm 3 mps 732 mmHg 64%
    22:00 +29°C° 0 mm 3 mps 732 mmHg 70%
    23:00 +28°C° 0 mm 4 mps 732 mmHg 76%

    18 November, Sunday

    Time Temperature Precipitation Wind Pressure Humidity
    00:00 +28°C° 0 mm 4 mps 732 mmHg 82%
    01:00 +27°C° 0 mm 4 mps 732 mmHg 82%
    02:00 +27°C° 0 mm 4 mps 731 mmHg 82%
    03:00 +27°C° 0 mm 4 mps 731 mmHg 82%
    04:00 +27°C° 0 mm 4 mps 731 mmHg 83%
    05:00 +27°C° 0 mm 3 mps 732 mmHg 83%
    06:00 +27°C° 0 mm 3 mps 732 mmHg 83%
    07:00 +28°C° 0 mm 3 mps 733 mmHg 76%
    08:00 +30°C° 0 mm 3 mps 733 mmHg 69%
    09:00 +31°C° 0 mm 3 mps 734 mmHg 62%
    10:00 +34°C° 0 mm 3 mps 733 mmHg 55%
    11:00 +36°C° 0 mm 2 mps 732 mmHg 47%
    12:00 +37°C° 0 mm 1 mps 732 mmHg 40%
    13:00 +36°C° 0.2 mm 1 mps 731 mmHg 41%
    14:00 +36°C° 0.2 mm 1 mps 730 mmHg 43%
    15:00 +35°C° 0.2 mm 1 mps 730 mmHg 44%
    16:00 +35°C° 0.3 mm 2 mps 730 mmHg 49%
    17:00 +32°C° 0.3 mm 2 mps 730 mmHg 53%
    18:00 +31°C° 0.3 mm 2 mps 730 mmHg 58%
    19:00 +30°C° 0.1 mm 2 mps 731 mmHg 62%
    20:00 +30°C° 0.1 mm 2 mps 732 mmHg 67%
    21:00 +29°C° 0.1 mm 2 mps 732 mmHg 71%
    22:00 +28°C° 0 mm 3 mps 732 mmHg 73%
    23:00 +28°C° 0 mm 3 mps 732 mmHg 75%

    19 November, Monday

    Time Temperature Precipitation Wind Pressure Humidity
    00:00 +28°C° 0 mm 3 mps 731 mmHg 77%
    01:00 +27°C° 0 mm 3 mps 731 mmHg 80%
    02:00 +27°C° 0 mm 3 mps 731 mmHg 82%
    03:00 +27°C° 0 mm 3 mps 731 mmHg 85%
    04:00 +26°C° 0 mm 3 mps 731 mmHg 86%
    05:00 +26°C° 0 mm 3 mps 731 mmHg 88%
    06:00 +26°C° 0 mm 3 mps 732 mmHg 89%
    07:00 +27°C° 0 mm 3 mps 732 mmHg 83%
    08:00 +29°C° 0 mm 3 mps 733 mmHg 76%
    09:00 +30°C° 0 mm 2 mps 733 mmHg 70%
    10:00 +32°C° 0 mm 2 mps 733 mmHg 62%
    11:00 +35°C° 0 mm 2 mps 732 mmHg 55%
    12:00 +36°C° 0 mm 1 mps 731 mmHg 48%
    13:00 +36°C° 0.2 mm 1 mps 731 mmHg 46%
    14:00 +36°C° 0.2 mm 1 mps 730 mmHg 44%
    15:00 +35°C° 0.2 mm 1 mps 729 mmHg 43%
    16:00 +34°C° 0.1 mm 1 mps 730 mmHg 48%
    17:00 +34°C° 0.1 mm 2 mps 730 mmHg 53%
    18:00 +31°C° 0.1 mm 2 mps 730 mmHg 58%
    19:00 +31°C° 0.1 mm 2 mps 731 mmHg 62%
    20:00 +30°C° 0.1 mm 3 mps 731 mmHg 67%
    21:00 +29°C° 0.1 mm 3 mps 732 mmHg 71%
    22:00 +29°C° 0 mm 3 mps 732 mmHg 74%
    23:00 +28°C° 0 mm 3 mps 731 mmHg 78%

    20 November, Tuesday

    Time Temperature Precipitation Wind Pressure Humidity
    00:00 +27°C° 0 mm 3 mps 731 mmHg 81%
    01:00 +27°C° 0 mm 3 mps 731 mmHg 83%
    02:00 +27°C° 0 mm 3 mps 731 mmHg 85%
    03:00 +27°C° 0 mm 3 mps 731 mmHg 87%
    04:00 +27°C° 0 mm 3 mps 731 mmHg 87%
    05:00 +27°C° 0 mm 3 mps 732 mmHg 86%
    06:00 +27°C° 0 mm 2 mps 732 mmHg 86%
    07:00 +28°C° 0 mm 2 mps 733 mmHg 81%
    08:00 +29°C° 0 mm 2 mps 733 mmHg 76%
    09:00 +30°C° 0 mm 2 mps 733 mmHg 71%
    10:00 +32°C° 0 mm 2 mps 733 mmHg 61%
    11:00 +35°C° 0 mm 1 mps 732 mmHg 52%
    12:00 +37°C° 0 mm 1 mps 732 mmHg 43%
    13:00 +37°C° 0.1 mm 1 mps 731 mmHg 40%
    14:00 +37°C° 0.1 mm 1 mps 731 mmHg 37%
    15:00 +37°C° 0.1 mm 1 mps 730 mmHg 35%
    16:00 +36°C° 0.1 mm 1 mps 730 mmHg 41%
    17:00 +35°C° 0.1 mm 2 mps 731 mmHg 47%
    18:00 +32°C° 0.1 mm 2 mps 731 mmHg 53%
    19:00 +31°C° 0 mm 3 mps 731 mmHg 60%
    20:00 +30°C° 0 mm 3 mps 731 mmHg 66%
    21:00 +29°C° 0 mm 3 mps 732 mmHg 73%
    22:00 +28°C° 0 mm 3 mps 732 mmHg 76%
    23:00 +28°C° 0 mm 4 mps 732 mmHg 79%
    Show more